CAPE
753 497 115 42 47 55 32 31 35 31 2 0 0 0 14 0 0 0 0 7 52 0 0 0 0 0 0 0 0 1 20 38
220 180 151 52 0 0 0 0 0 0 0 0 0 0 0 0 0 0 0 0 0 0 0 0 0 0 0 0 0 0 11 44
121 83 79 12 0 0 0 0 0 0 0 0 0 0 0 0 0 0 0 0 0 0 0 0 0 0 0 0 0 8 21 52
28 57 85 58 1 0 0 0 0 0 0 0 0 0 0 0 0 0 0 0 0 0 0 0 6 1 0 0 5 11 30 50
12 45 107 56 1 0 0 0 0 0 0 0 0 0 0 0 0 0 0 0 0 0 0 0 1 1 4 4 5 9 21 33
16 0 4 4 0 0 0 0 0 0 0 0 0 0 0 0 0 0 0 0 0 0 0 4 2 2 4 4 0 1 6 3
1 0 3 1 0 0 0 0 0 0 0 0 0 0 0 0 0 0 0 0 0 0 1 2 5 6 2 0 0 0 2 4
0 0 1 0 0 0 0 0 0 0 0 0 0 0 0 0 0 0 0 0 0 0 0 2 1 1 0 0 0 0 0 0
0 0 0 0 0 0 0 0 0 0 0 0 0 0 0 0 0 0 0 0 0 0 2 0 0 0 0 0 0 0 0 0
0 0 0 0 0 0 0 0 0 0 0 0 0 0 0 0 0 0 0 0 0 0 0 1 0 0 0 0 0 0 0 0
0 0 1 0 1 0 0 0 0 0 0 0 0 0 0 0 0 0 0 0 0 0 0 0 0 0 0 0 0 0 0 0
0 0 1 0 0 0 0 0 0 0 0 0 0 0 0 0 0 0 0 0 0 0 0 0 0 0 0 0 0 0 0 0
0 1 1 0 0 0 0 0 0 0 0 0 0 0 0 0 0 0 0 0 0 0 0 0 0 0 0 0 0 0 0 0
0 2 2 0 0 0 0 0 0 0 0 0 0 0 0 0 0 0 0 0 0 0 0 0 0 0 0 0 0 0 0 0
2 4 3 0 0 0 0 0 0 0 0 0 0 0 0 0 0 0 0 0 0 0 0 0 0 0 0 0 0 0 0 0
5 4 4 0 0 0 0 0 0 0 0 0 0 0 0 0 0 0 0 0 0 0 0 0 0 0 0 0 0 0 0 0
0 0 1 1 0 0 0 0 0 0 0 0 0 0 0 0 0 0 0 0 0 0 0 0 0 0 0 0 0 0 0 0
7 6 1 1 0 0 0 0 0 0 0 0 0 0 0 0 0 0 0 0 0 0 0 0 0 0 0 0 0 0 0 0
7 10 3 0 1 0 0 0 0 0 0 0 0 0 0 0 0 0 0 0 0 0 0 0 0 0 0 0 0 0 0 0
11 4 2 0 0 0 0 0 0 0 0 0 0 0 0 0 0 0 0 0 0 0 0 0 0 0 0 0 0 0 0 0
CIN
0 -8 -106 -170 -169 -171 -210 -200 -172 -220 -103 0 0 0 -196 0 0 0 0 -231 -164 0 0 0 0 0 0 0 0 -24 0 -16
-35 -37 -49 -113 0 0 0 0 0 0 0 0 0 0 0 0 0 0 0 0 0 0 0 0 0 0 0 0 0 0 0 0
-57 -74 -76 -123 0 0 0 0 0 0 0 0 0 0 0 0 0 0 0 0 0 0 0 0 0 0 0 0 0 0 0 0
-104 -94 -67 -72 0 0 0 0 0 0 0 0 0 0 0 0 0 0 0 0 0 0 0 0 -25 0 0 0 0 0 0 0
-1 -99 -60 -64 0 0 0 0 0 0 0 0 0 0 0 0 0 0 0 0 0 0 0 0 0 0 0 0 0 0 0 0
0 0 0 0 0 0 0 0 0 0 0 0 0 0 0 0 0 0 0 0 0 0 0 0 0 0 0 0 0 0 0 0
0 0 0 0 0 0 0 0 0 0 0 0 0 0 0 0 0 0 0 0 0 0 0 0 0 0 0 0 0 0 0 0
0 0 0 0 0 0 0 0 0 0 0 0 0 0 0 0 0 0 0 0 0 0 0 0 0 0 0 0 0 0 0 0
0 0 0 0 0 0 0 0 0 0 0 0 0 0 0 0 0 0 0 0 0 0 0 0 0 0 0 0 0 0 0 0
0 0 0 0 0 0 0 0 0 0 0 0 0 0 0 0 0 0 0 0 0 0 0 0 0 0 0 0 0 0 0 0
0 0 0 0 0 0 0 0 0 0 0 0 0 0 0 0 0 0 0 0 0 0 0 0 0 0 0 0 0 0 0 0
0 0 0 0 0 0 0 0 0 0 0 0 0 0 0 0 0 0 0 0 0 0 0 0 0 0 0 0 0 0 0 0
0 0 0 0 0 0 0 0 0 0 0 0 0 0 0 0 0 0 0 0 0 0 0 0 0 0 0 0 0 0 0 0
0 0 0 0 0 0 0 0 0 0 0 0 0 0 0 0 0 0 0 0 0 0 0 0 0 0 0 0 0 0 0 0
0 0 0 0 0 0 0 0 0 0 0 0 0 0 0 0 0 0 0 0 0 0 0 0 0 0 0 0 0 0 0 0
0 0 0 0 0 0 0 0 0 0 0 0 0 0 0 0 0 0 0 0 0 0 0 0 0 0 0 0 0 0 0 0
0 0 0 0 0 0 0 0 0 0 0 0 0 0 0 0 0 0 0 0 0 0 0 0 0 0 0 0 0 0 0 0
0 0 0 0 0 0 0 0 0 0 0 0 0 0 0 0 0 0 0 0 0 0 0 0 0 0 0 0 0 0 0 0
0 0 0 0 0 0 0 0 0 0 0 0 0 0 0 0 0 0 0 0 0 0 0 0 0 0 0 0 0 0 0 0
0 0 0 0 0 0 0 0 0 0 0 0 0 0 0 0 0 0 0 0 0 0 0 0 0 0 0 0 0 0 0 0
Wind_Speed
11 11 14 13 12 13 14 14 14 15 16 15 17 16 14 14 15 15 16 17 16 16 16 17 17 17 15 11 9 6 12 14
8 9 10 11 11 13 13 14 14 15 15 15 14 14 12 12 14 14 15 15 15 16 16 17 17 15 11 7 4 6 10 15
7 9 10 11 12 12 13 14 15 14 13 9 5 6 9 11 13 14 14 13 14 15 15 17 17 13 9 6 5 8 11 12
8 8 9 9 7 8 8 7 6 6 6 7 6 7 8 10 11 12 12 13 13 13 9 8 7 8 7 4 8 10 10 12
9 8 7 7 6 5 4 4 5 6 7 6 6 5 4 4 4 5 6 6 8 9 8 5 8 7 8 8 9 9 8 10
9 7 6 5 5 4 5 5 5 5 7 6 4 4 4 3 3 5 4 4 6 5 5 8 10 10 10 10 9 8 7 8
10 8 7 6 5 5 5 6 5 6 6 6 4 4 4 4 3 3 4 4 5 6 7 8 9 9 9 10 10 10 10 7
10 8 7 8 6 7 6 5 6 5 5 5 6 5 4 4 4 4 4 4 4 6 7 8 7 8 10 10 9 9 9 8
12 10 9 9 9 8 6 6 6 5 6 6 6 5 5 4 4 4 4 5 6 6 7 7 7 7 10 9 8 8 8 8
12 10 11 10 9 7 6 7 5 5 6 5 6 7 6 5 4 4 4 4 5 6 7 7 7 7 7 7 7 7 8 7
13 12 13 12 10 8 7 8 6 5 5 5 6 6 6 5 4 4 3 4 5 6 6 7 7 7 7 6 5 6 6 7
14 12 13 12 9 8 7 6 6 6 5 6 7 5 6 5 5 5 4 4 5 6 8 7 7 7 8 7 6 5 5 5
16 17 16 13 10 10 9 8 7 6 5 7 7 6 5 5 5 5 4 5 6 8 8 9 7 8 7 7 6 5 4 3
18 18 18 14 11 9 8 7 7 6 6 7 7 7 6 5 5 5 5 6 8 9 10 7 7 5 2 4 5 5 3 2
19 19 19 16 15 10 8 8 6 7 8 7 7 8 7 6 6 5 6 6 7 8 8 8 6 5 5 4 3 2 5 5
18 18 19 17 18 14 14 11 10 8 9 8 8 9 8 7 7 6 7 5 6 6 6 6 4 6 5 4 4 4 5 5
22 24 22 20 19 16 14 13 10 8 8 11 9 9 9 9 9 8 7 5 6 7 7 7 6 5 5 5 5 4 5 5
18 22 22 21 20 19 18 17 13 11 11 10 9 8 8 10 10 9 8 6 7 7 7 7 5 5 4 5 4 4 5 5
18 23 23 24 22 21 20 18 16 16 14 11 12 10 9 11 11 10 8 9 9 8 7 6 7 6 7 5 3 3 2 3
25 23 23 24 23 23 19 19 12 12 14 11 10 10 10 12 11 10 10 10 9 7 6 6 6 6 7 6 5 4 3 3
Wind_Direction
106 105 102 94 98 101 95 92 88 89 88 83 83 76 77 79 74 72 76 81 87 88 87 86 83 78 74 63 53 24 76 60
111 129 130 126 121 98 96 96 95 92 91 89 88 97 100 100 99 76 78 85 95 96 95 88 83 78 64 63 76 46 69 74
141 146 140 134 127 116 107 101 101 111 108 105 135 77 100 91 82 86 84 93 96 97 99 102 93 75 56 41 30 63 71 76
154 161 146 143 140 141 122 135 106 102 101 100 92 77 57 80 86 89 92 97 95 100 112 152 181 110 110 85 67 75 71 83
167 153 158 162 138 143 141 132 130 109 96 83 85 98 98 100 113 117 121 150 129 146 160 76 72 72 73 74 80 74 76 75
158 152 162 150 153 156 141 135 134 125 103 109 111 112 100 87 101 114 116 95 117 117 94 91 89 89 84 78 67 78 86 85
163 163 171 153 170 146 140 140 140 124 129 113 102 100 97 105 95 105 104 121 125 122 121 112 107 102 95 90 81 73 71 82
162 164 168 160 159 156 145 136 130 141 121 105 110 116 117 122 133 124 119 113 113 137 134 130 111 110 98 89 82 80 72 72
168 164 174 166 161 157 154 143 144 140 118 124 114 122 123 126 121 115 105 111 126 125 135 121 119 107 105 99 96 85 80 70
164 163 176 168 163 169 156 143 149 146 137 128 127 126 130 132 130 120 116 148 143 143 145 134 126 118 108 102 97 91 86 78
167 172 172 172 168 164 155 148 158 142 136 133 126 131 131 130 120 109 176 141 147 147 144 139 131 126 114 103 95 89 82 73
167 177 170 170 168 164 157 157 152 152 148 132 145 132 131 135 122 124 154 140 147 145 137 139 137 129 117 105 88 78 74 75
175 179 174 175 176 175 172 173 163 158 152 147 145 142 135 141 131 142 147 141 123 137 128 137 136 135 129 120 111 112 83 76
183 183 180 185 179 184 179 168 172 162 150 154 149 152 153 155 149 143 139 129 137 149 153 147 142 167 193 172 167 159 141 81
188 189 185 187 181 174 175 165 160 172 165 163 165 165 165 157 156 149 148 154 160 167 165 168 157 170 247 290 188 219 148 156
194 196 189 190 185 181 182 184 180 185 174 166 163 169 165 163 159 168 168 162 158 169 186 181 195 184 190 227 265 314 231 173
191 191 190 190 188 192 188 195 189 171 171 161 170 170 172 170 172 173 166 167 161 173 185 199 203 231 223 191 202 195 217 263
200 191 193 192 193 197 196 195 189 176 175 174 176 174 179 179 180 174 172 164 171 175 180 183 200 214 215 218 221 219 194 218
193 198 196 192 196 198 197 199 193 189 181 186 177 180 187 183 181 179 178 179 179 176 180 173 183 187 193 192 210 218 234 240
195 194 200 194 196 200 198 203 196 197 192 190 190 190 186 174 184 182 185 180 179 182 184 186 185 195 190 192 177 180 197 228